This is the latest recevied weather packets stored in our database for station/object KM8V-8. If no packets are shown the sender has not sent any weather packets the latest 10 day(s).
| Time | Temp. | Humidity | Pressure | Rain* | Wind** | Luminosity | Snow |
|---|---|---|---|---|---|---|---|
| 1778002518 | 17.78° C | 70% | 1006.7 hPa | 0 mm | - | 310 W/m² | - |
| 1778002218 | 17.78° C | 70% | 1006.7 hPa | 0 mm | - | 178 W/m² | - |
| 1778001918 | 17.78° C | 70% | 1006.7 hPa | 0 mm | - | 202 W/m² | - |
| 1778001618 | 17.78° C | 70% | 1006.6 hPa | 0 mm | - | 224 W/m² | - |
| 1778001318 | 17.78° C | 71% | 1006.6 hPa | 0 mm | - | 162 W/m² | - |
| 1778001019 | 17.78° C | 72% | 1006.6 hPa | 0 mm | - | 161 W/m² | - |
| 1778000718 | 17.78° C | 72% | 1006.6 hPa | 0 mm | - | 164 W/m² | - |
| 1778000419 | 17.78° C | 71% | 1006.6 hPa | 0 mm | - | 207 W/m² | - |
| 1778000118 | 18.33° C | 71% | 1006.6 hPa | 0 mm | - | 229 W/m² | - |
| 1777999818 | 18.33° C | 70% | 1006.6 hPa | 0 mm | - | 166 W/m² | - |
| 1777999519 | 18.33° C | 68% | 1006.5 hPa | 0 mm | - | 177 W/m² | - |
| 1777999216 | 18.89° C | 66% | 1006.5 hPa | 0 mm | - | 162 W/m² | - |
| 1777998916 | 18.89° C | 66% | 1006.5 hPa | 0 mm | - | 153 W/m² | - |
| 1777998620 | 18.89° C | 65% | 1006.4 hPa | 0 mm | - | 131 W/m² | - |
| 1777998319 | 18.89° C | 65% | 1006.3 hPa | 0 mm | - | 172 W/m² | - |
| 1777998019 | 18.89° C | 65% | 1006.4 hPa | 0 mm | - | 184 W/m² | - |
| 1777997719 | 18.89° C | 65% | 1006.3 hPa | 0 mm | - | 188 W/m² | - |
| 1777997419 | 18.89° C | 64% | 1006.2 hPa | 0 mm | - | 219 W/m² | - |
| 1777997120 | 19.44° C | 64% | 1006.3 hPa | 0 mm | - | 167 W/m² | - |
| 1777996819 | 19.44° C | 63% | 1006.2 hPa | 0 mm | - | 172 W/m² | - |
| 1777996516 | 19.44° C | 62% | 1006.1 hPa | 0 mm | - | 253 W/m² | - |
| 1777996217 | 19.44° C | 62% | 1006.1 hPa | 0 mm | - | 575 W/m² | - |
| 1777995917 | 19.44° C | 62% | 1005.9 hPa | 0 mm | - | 685 W/m² | - |
| 1777995617 | 19.44° C | 63% | 1005.9 hPa | 0 mm | - | 647 W/m² | - |
| 1777995317 | 19.44° C | 62% | 1005.8 hPa | 0 mm | - | 661 W/m² | - |
* Rain latest hour (hover to see other rain measurements)
** Current wind speed in m/s (hover to see current wind gust speed)